User: anonymous   Login
Location: Sungai Laei
(2.6000°N, 113.7167°E)
Time: 14:39:18
(UTC+00:00)
Language:

Meteor 1-31 Rocket - Orbit

View from above orbital plane
View from above orbital plane
View from above satellite
View from above satellite

Ground track
Ground track

The orbit data is extracted from the following two-line orbital elements,

1 12586U 81065B   22221.85621599  .00001776  00000-0  10602-3 0  9999
2 12586  97.6864 216.5748 0016847 228.9071 131.0705 15.12361974236133
Epoch (UTC): 09 August 2022 20:32:57
Eccentricity: 0.0016847
inclination: 97.6864°
perigee height: 517 km
apogee height: 540 km
right ascension of ascending node: 216.5748°
argument of perigee: 228.9071°
revolutions per day: 15.12361974
mean anomaly at epoch: 131.0705°
orbit number at epoch: 23613

The dashed part of the orbit path shows where the satellite is in the earth's shadow,  

DLR